Albuquerque Double Eagle, NM

9:39 PM MDT on May 28, 2017 (GMT -0600)
Double Eagle Ii

Weather History for KAEG - April, 2014

Change the Weather History Date:

Sunday, April 27, 2014

  Actual Average (KABQ) Record (KABQ)
Temperature  
Mean Temperature 43 °F -  
Max Temperature 57 °F 73 °F 88 °F (1910)
Min Temperature 31 °F 42 °F 29 °F (1984)
Degree Days  
Heating Degree Days 22    
Moisture  
Dew Point 21 °F    
Average Humidity 46    
Maximum Humidity 87    
Minimum Humidity 18    
Precipitation  
Precipitation 0.00 in - - ()
Sea Level Pressure  
Sea Level Pressure 29.77 in    
Wind  
Wind Speed 14 mph (West)    
Max Wind Speed 37 mph    
Max Gust Speed 51 mph    
Visibility 10 miles    
Events      
Averages and records for this station are not official NWS values.
T = Trace of Precipitation, MM = Missing Value Source: NWS Daily Summary

Daily Weather History Graph

Daily Weather History Graph

Search for Another Location

Airport or City:

Trip Planner

Search our weather history database for the weather conditions in past years. The results will help you decide how hot, cold, wet, or windy it might be!

Date:

Astronomy

Apr. 27, 2014 Rise Set
Actual Time 6:20 AM MDT 7:49 PM MDT
Civil Twilight 5:53 AM MDT 8:16 PM MDT
Nautical Twilight 5:21 AM MDT 8:48 PM MDT
Astronomical Twilight 4:47 AM MDT 9:22 PM MDT
Moon 5:18 AM MDT (4/27) 6:29 PM MDT (4/27)
Length of Visible Light 14h 23m
Length of Day
13h 29m
Waning Crescent, 3% of the Moon is Illuminated
Apr 27
Waning Crescent
Apr 29
New
May 6
First Quarter
May 14
Full
May 21
Last Quarter

Hourly Weather History & Observations

Time (MDT) Temp. Windchill Dew Point Humidity Pressure Visibility Wind Dir Wind Speed Gust Speed Precip Events Conditions
12:15 AM 32.4 °F - 28.9 °F 87% 29.77 in 10.0 mi Calm Calm - N/A   Mostly Cloudy
12:35 AM 32.2 °F 26.7 °F 27.7 °F 83% 29.77 in 10.0 mi South 5.8 mph - N/A   Scattered Clouds
12:55 AM 31.6 °F 25.1 °F 28.0 °F 87% 29.77 in 10.0 mi South 6.9 mph - N/A   Scattered Clouds
1:15 AM 32.4 °F 24.6 °F 27.5 °F 82% 29.75 in 10.0 mi SSW 9.2 mph - N/A   Clear
1:35 AM 32.0 °F 24.2 °F 26.2 °F 79% 29.74 in 10.0 mi WSW 9.2 mph - N/A   Clear
1:55 AM 34.0 °F 25.0 °F 25.7 °F 72% 29.74 in 10.0 mi WSW 12.7 mph - N/A   Clear
2:15 AM 35.2 °F 25.4 °F 25.5 °F 68% 29.72 in 10.0 mi WSW 16.1 mph - N/A   Clear
2:35 AM 36.5 °F 24.9 °F 25.5 °F 64% 29.71 in 10.0 mi WSW 24.2 mph 28.8 mph N/A   Clear
2:55 AM 37.0 °F 25.6 °F 25.7 °F 64% 29.70 in 10.0 mi WSW 24.2 mph 31.1 mph N/A   Clear
3:15 AM 37.2 °F 27.3 °F 26.1 °F 64% 29.71 in 10.0 mi WSW 18.4 mph - N/A   Scattered Clouds
3:35 AM 37.8 °F 28.6 °F 26.4 °F 64% 29.72 in 10.0 mi West 16.1 mph - N/A   Mostly Cloudy
3:55 AM 37.9 °F 30.5 °F 26.6 °F 64% 29.72 in 10.0 mi West 11.5 mph - N/A   Overcast
4:15 AM 38.7 °F 30.1 °F 26.6 °F 62% 29.71 in 10.0 mi WSW 15.0 mph 18.4 mph N/A   Overcast
4:35 AM 37.8 °F 28.3 °F 26.6 °F 64% 29.70 in 10.0 mi West 17.3 mph 25.3 mph N/A   Scattered Clouds
5:55 AM 39.2 °F 30.2 °F 26.6 °F 61% 29.72 in 10.0 mi WSW 17.3 mph 28.8 mph N/A   Mostly Cloudy
6:50 AM 37.4 °F 29.3 °F 26.6 °F 65% 29.72 in 10.0 mi WSW 12.7 mph - N/A   Mostly Cloudy
7:50 AM 44.6 °F 37.8 °F 26.6 °F 49% 29.74 in 10.0 mi WSW 15.0 mph - N/A   Mostly Cloudy
8:50 AM 46.4 °F 37.2 °F 26.6 °F 46% 29.74 in 10.0 mi West 29.9 mph 38.0 mph N/A   Mostly Cloudy
9:50 AM 48.2 °F - 24.8 °F 40% 29.74 in 10.0 mi West 25.3 mph 36.8 mph N/A   Mostly Cloudy
10:50 AM 51.8 °F - 21.2 °F 30% 29.74 in 10.0 mi West 25.3 mph 36.8 mph N/A   Mostly Cloudy
11:50 AM 53.6 °F - 19.4 °F 26% 29.74 in 10.0 mi WNW 26.5 mph 39.1 mph N/A   Overcast
12:50 PM 53.6 °F - 19.4 °F 26% 29.74 in 10.0 mi West 23.0 mph 36.8 mph N/A   Mostly Cloudy
1:50 PM 55.4 °F - 21.2 °F 26% 29.73 in 10.0 mi West 25.3 mph 41.4 mph N/A   Mostly Cloudy
2:50 PM 55.4 °F - 17.6 °F 23% 29.73 in 10.0 mi West 33.4 mph 42.6 mph N/A   Mostly Cloudy
3:50 PM 53.6 °F - 21.2 °F 28% 29.71 in 10.0 mi WNW 31.1 mph 38.0 mph N/A   Mostly Cloudy
4:48 PM 55.4 °F - 12.2 °F 18% 29.72 in 10.0 mi WNW 36.8 mph 48.3 mph N/A   Mostly Cloudy
5:48 PM 55.4 °F - 12.2 °F 18% 29.73 in 10.0 mi West 31.1 mph 50.6 mph N/A   Mostly Cloudy
6:48 PM 53.6 °F - 15.8 °F 22% 29.75 in 10.0 mi West 31.1 mph 38.0 mph N/A   Scattered Clouds
7:48 PM 51.8 °F - 15.8 °F 24% 29.79 in 10.0 mi WNW 25.3 mph 33.4 mph N/A   Scattered Clouds
8:48 PM 48.2 °F - 15.8 °F 27% 29.82 in 10.0 mi West 15.0 mph - N/A   Clear
9:15 PM 46.2 °F 40.8 °F 14.9 °F 28% 29.84 in 10.0 mi WNW 11.5 mph - N/A   Clear
9:35 PM 45.5 °F 40.3 °F 13.8 °F 28% 29.85 in 10.0 mi NW 10.4 mph - N/A   Scattered Clouds
9:48 PM 44.6 °F 40.2 °F 12.2 °F 27% 29.85 in 10.0 mi NW 8.1 mph - N/A   Scattered Clouds
9:55 PM 44.1 °F 39.5 °F 13.1 °F 29% 29.86 in 10.0 mi NW 8.1 mph - N/A   Clear
10:15 PM 41.4 °F 36.8 °F 12.6 °F 31% 29.86 in 10.0 mi WNW 6.9 mph - N/A   Clear
10:35 PM 41.9 °F 36.3 °F 12.7 °F 31% 29.86 in 10.0 mi WNW 9.2 mph - N/A   Clear
10:55 PM 42.6 °F 36.8 °F 13.1 °F 30% 29.87 in 10.0 mi WNW 10.4 mph - N/A   Scattered Clouds
11:15 PM 41.9 °F 35.4 °F 13.3 °F 31% 29.86 in 10.0 mi WNW 11.5 mph - N/A   Scattered Clouds
11:35 PM 42.8 °F 37.5 °F 13.5 °F 30% 29.87 in 10.0 mi WNW 9.2 mph - N/A   Scattered Clouds
11:55 PM 41.4 °F 36.2 °F 13.5 °F 32% 29.87 in 10.0 mi WNW 8.1 mph - N/A   Clear